[Date Prev][Date Next][Thread Prev][Thread Next] - [Date Index][Thread Index][Author Index]

2 Line ISS Keps 12-23



ISS
1 25544U 98067A   02357.16817130 -.00014006  00000-0 -17719-3 0  5036
2 25544  51.6350 184.3276 0003908 301.3590 218.7694 15.57964858233580


----
Via the sarex mailing list at AMSAT.ORG courtesy of AMSAT-NA.
To unsubscribe, send "unsubscribe sarex" to Majordomo@amsat.org



AMSAT Top AMSAT Home